COSMOS 2251 DEB, 34304

Orbit data source: Space-Track

COSMOS 2251 DEB, 34304 is space debris in LEO originally from a launch on Wed, 16 Jun 1993 UTC launched from the Plesetsk Missile And Space Complex (PKMTR). The debris from Iridium 33, an American commercial communications satellite, has been tracked extensively since its accidental collision with the defunct Russian satellite Cosmos 2251 in 2009. This event, occurring at high speed in low Earth orbit (LEO), generated thousands of pieces of space debris, significantly increasing the risk of further collisions. The Iridium 33 debris cloud has impacted space traffic management and orbital debris mitigation strategies, making it a subject of ongoing study in space situational awareness.

Loading next visibility...
Identifier
34304, 1993-036NA
Orbit
LEO
Country
Flag of CISCIS
Related business
Manufacturer
Unknown
Mission
Spacecraft
Bus & Motor
Unknown
Mass
Unknown
Launch date (UTC)
1993-06-16 (33 years ago)
Launch vehicle
Unknown
Launch site
Plesetsk Missile And Space Complex (PKMTR)
Object type
Payload
Rocket body
Debris
Shape & HBR
Unknown shape, 0.1 m
Radar Cross Section
Small (<0.1 m²)

Expand to show TLE details & history
Last TLE update: 15 hours ago

TLE from 15 hours ago
0 COSMOS 2251 DEB
1 34304U 93036NA  26124.01575524  .00002263  00000-0  67575-3 0  9995
2 34304  74.0131 219.8809 0127511 323.4319 215.6832 14.38964959893422
Epoch: 2026-05-04T00:22Z
TLE epoch observation values (Epoch: 2026-05-04T00:22:41.252Z)
Latitude
1.55851°
Longitude
171.85373°
Altitude
838.697 km
Speed
7.395 km/s
True Right ascension
02h 37m 44s
True Declination
1° 32' 57"
Sunlit
Object was in daylight at epoch
Visualization orbit readout
Latitude
Unknown
Longitude
Unknown
Altitude
Unknown
Speed
Unknown
Apparent Right ascension
Unknown
Apparent Declination
Unknown
Sunlit
N/A
Visualization observer readout
Local Sidereal Time
23:29:09
Azimuth
Unknown
Elevation
Unknown
Doppler factor
Unknown
Orbital elements
Apogee altitude
850.556 km
Perigee altitude
668.529 km
Semi-major axis
7,137.679 km
Eccentricity
0.01275
Inclination
74.0131°
RAAN
219.8809°
Arg. of periapsis
323.4319°
True anomaly
214.84182°
Mean anomaly
215.6832°
Eccentric anomaly
215.26143°
Mean motion
3.59921 °/min
Orbital period
100.02 mins
BSTAR
0.00067575
Loading maneuver chart data...
Computing Atmospheric mass density...

Documentation

Showing up to 5 results
|